Home   Weather   Danmarkshavn   Past weeks
Flag for Greenland

Past Weather in Danmarkshavn, Greenland — Yesterday and Last 2 Weeks

Now
6 °F

Sunny.


Feels Like: -10 °F
Forecast: N/A
Wind: 12 mph from Northwest

Location: Danmarkshavn

Current Time: Oct 23, 2019 at 3:56:51 pm

Latest Report: Oct 23, 2019 at 3:00 pm


Visibility: 31 mi

Pressure: 30.35 "Hg

Humidity: 58%

Dew Point: -6 °F

Location of DanmarkshavnLocation

Past Weather in Danmarkshavn — Graph

°F

Danmarkshavn Temperature Yesterday

Maximum temperature yesterday: 17 °F (at 10:00 pm)
Minimum temperature yesterday: 9 °F (at 3:00 am)
Average temperature yesterday: 13 °F

High & Low Weather Summary for the Past Weeks

 TemperatureHumidityPressure
High27 °F (Oct 8, 2:00 pm)87% (Oct 13, 12:00 pm)30.39 "Hg (Oct 13, 12:00 pm)
Low2 °F (Oct 21, 11:00 am)40% (Oct 18, 7:00 am)29.65 "Hg (Oct 12, 6:00 am)
Average15 °F62%30.03 "Hg
* Reported Oct 8 2:00 pm — Oct 23 2:00 pm, Danmarkshavn. Weather by CustomWeather, © 2019

Note: Actual official high and low records may vary slightly from our data, if they occured in-between our weather recording intervals... More about our weather records

Advertising

Danmarkshavn Weather History for the Previous 24 Hours

Scroll right to see more
 ConditionsComfort  
Time TempWeatherWind HumidityBarometerVisibility
2:00 pm
Wed, Oct 23
6 °FSunny.10 mph59%30.36 "Hg31 mi
1:00 pm9 °FSunny.14 mph48%30.37 "Hg31 mi
12:00 pm8 °FSunny.12 mph50%30.38 "Hg31 mi
11:00 am9 °FSunny.10 mph48%30.38 "Hg31 mi
10:00 am11 °FClear.13 mph44%30.38 "Hg31 mi
9:00 am11 °FClear.8 mph46%30.38 "Hg31 mi
8:00 am11 °FClear.12 mph52%30.39 "Hg31 mi
7:00 am12 °FPassing clouds.9 mph60%30.38 "Hg31 mi
6:00 am14 °FPassing clouds.16 mph63%30.37 "Hg31 mi
5:00 am11 °FPassing clouds.16 mph63%30.38 "Hg31 mi
4:00 am11 °FOvercast.14 mph64%30.39 "Hg31 mi
3:00 am11 °FPassing clouds.14 mph74%30.38 "Hg31 mi
2:00 am15 °FClear.25 mph65%30.34 "Hg31 mi
1:00 am15 °FPassing clouds.25 mph69%30.34 "Hg31 mi
12:00 am16 °FOvercast.28 mph71%30.33 "Hg17 mi
11:00 pm
Tue, Oct 22
16 °FClear.28 mph72%30.32 "Hg12 mi
10:00 pm17 °FOvercast.30 mph77%30.30 "Hg1 mi
9:00 pm16 °FOvercast.25 mph82%30.29 "Hg1 mi
8:00 pm16 °FOvercast.22 mph79%30.28 "Hg1 mi
7:00 pm16 °FOvercast.24 mph80%30.27 "Hg1 mi
6:00 pm15 °FLight snow. Overcast.23 mph77%30.26 "Hg1 mi
5:00 pm15 °FOvercast.14 mph75%30.24 "Hg6 mi
4:00 pm14 °FIce fog.15 mph77%30.24 "HgN/A
3:00 pm13 °FOvercast.2 mph79%30.24 "Hg2 mi
Weather by CustomWeather, © 2019

See weather overview